Home   Weather   Wainwright   Past weeks

Flag for USA Past Weather in Wainwright, Alaska, USA — Yesterday and Last 2 Weeks

Now
47 °F

Overcast.


Feels Like: 43 °F
Forecast: 36 / 42 °F
Wind: 7 mph from Southeast

Location: Wainwright Distant Early Warning

Current Time: Sep 30, 2016 at 5:41:03 PM

Latest Report: Sep 30, 2016 at 4:53 PM


Visibility: 10 mi

Pressure: 30.18 "Hg

Humidity: 86%

Dew Point: 43 °F

Location of WainwrightLocation

Past Weather in Wainwright — Graph

°F

Wainwright Temperature Yesterday

Maximum temperature yesterday: 42 °F (at 11:53 PM)
Minimum temperature yesterday: 33 °F (at 7:53 AM)
Average temperature yesterday: 37 °F

High & Low Weather Summary for the Past Weeks

 TemperatureHumidityPressure
High44 °F (Sep 20, 2:53 PM)100% (Sep 16, 1:01 PM)30.22 "Hg (Sep 16, 1:01 PM)
Low26 °F (Sep 16, 3:53 AM)69% (Sep 15, 4:53 PM)29.10 "Hg (Sep 17, 9:01 AM)
Average35 °F91%29.57 "Hg
* Reported Sep 15 3:53 PM — Sep 30 3:53 PM, Wainwright, Weather by CustomWeather, © 2016

Note: Actual official high and low records may vary slightly from our data, if they occured in-between our weather recording intervals... More about our weather records

Advertising

Wainwright Weather History for the Previous 24 Hours

Scroll right to see more
 ConditionsComfort  
Time TempWeatherWind HumidityBarometerVisibility
3:53 PM
Fri, Sep 30
43 °FOvercast.5 mph93%30.20 "Hg10 mi
2:53 PM42 °FMostly cloudy.5 mph92%30.21 "Hg10 mi
1:53 PM40 °FOvercast.5 mph93%30.22 "Hg10 mi
12:53 PM39 °FOvercast.6 mph96%30.22 "Hg10 mi
11:53 AM40 °FOvercast.9 mph93%30.22 "Hg10 mi
10:53 AM44 °FMostly cloudy.10 mph93%30.21 "Hg10 mi
9:53 AM40 °FOvercast.9 mph97%30.21 "Hg10 mi
8:53 AM40 °FOvercast.7 mph97%30.22 "Hg10 mi
7:53 AM40 °FMostly cloudy.10 mph97%30.22 "Hg10 mi
6:53 AM40 °FMostly cloudy.9 mph97%30.22 "Hg10 mi
5:53 AM39 °FOvercast.10 mph100%30.22 "Hg10 mi
4:53 AM40 °FMostly cloudy.10 mph97%30.22 "Hg10 mi
3:53 AM41 °FMostly cloudy.13 mph96%30.21 "Hg10 mi
2:53 AM40 °FOvercast.13 mph97%30.21 "Hg10 mi
1:53 AM44 °FMostly cloudy.18 mph89%30.19 "Hg10 mi
12:53 AM43 °FPassing clouds.18 mph93%30.18 "Hg10 mi
11:53 PM
Thu, Sep 29
42 °FOvercast.17 mph92%30.17 "Hg10 mi
10:53 PM41 °FOvercast.16 mph96%30.16 "Hg10 mi
9:53 PM41 °FMostly cloudy.16 mph93%30.16 "Hg10 mi
8:53 PM39 °FPassing clouds.13 mph96%30.15 "Hg10 mi
7:53 PM38 °FOvercast.7 mph100%30.16 "Hg10 mi
6:53 PM39 °FLight rain. Fog.13 mph100%30.15 "Hg5 mi
5:53 PM38 °FLight rain. Fog.13 mph97%30.16 "Hg5 mi
Weather by CustomWeather, © 2016

See weather overviewHow to use our weather pages